owner,sensor,date,latitude,longitude,vertical_datum,mass_concentration_of_oxygen_in_sea_water,qcFlag 
SCCF RECON,ioos:station:SCCF:56:1,2017-07-01T00:00:00Z,26.4645,-82.1044,1.74,7.64,1111122 
SCCF RECON,ioos:station:SCCF:56:1,2017-07-01T01:00:00Z,26.4645,-82.1044,1.711,8.01,1111122 
SCCF RECON,ioos:station:SCCF:56:1,2017-07-01T02:00:00Z,26.4645,-82.1044,1.655,7.37,1111122 
SCCF RECON,ioos:station:SCCF:56:1,2017-07-01T03:00:00Z,26.4645,-82.1044,1.574,7.16,1111122 
SCCF RECON,ioos:station:SCCF:56:1,2017-07-01T04:00:00Z,26.4645,-82.1044,1.493,5.97,1111122 
SCCF RECON,ioos:station:SCCF:56:1,2017-07-01T05:00:00Z,26.4645,-82.1044,1.42,4.76,1111122 
SCCF RECON,ioos:station:SCCF:56:1,2017-07-01T06:00:00Z,26.4645,-82.1044,1.38,3.96,1111122 
SCCF RECON,ioos:station:SCCF:56:1,2017-07-01T07:00:00Z,26.4645,-82.1044,1.416,4.01,1111122 
SCCF RECON,ioos:station:SCCF:56:1,2017-07-01T08:00:00Z,26.4645,-82.1044,1.52,4.67,1111122 
SCCF RECON,ioos:station:SCCF:56:1,2017-07-01T09:00:00Z,26.4645,-82.1044,1.659,4.46,1111122 
SCCF RECON,ioos:station:SCCF:56:1,2017-07-01T10:00:00Z,26.4645,-82.1044,1.76,4.35,1111122 
SCCF RECON,ioos:station:SCCF:56:1,2017-07-01T11:00:00Z,26.4645,-82.1044,1.838,4.43,1111122 
SCCF RECON,ioos:station:SCCF:56:1,2017-07-01T12:00:00Z,26.4645,-82.1044,1.852,4.55,1111122 
SCCF RECON,ioos:station:SCCF:56:1,2017-07-01T13:00:00Z,26.4645,-82.1044,1.856,5.62,1111122 
SCCF RECON,ioos:station:SCCF:56:1,2017-07-01T14:00:00Z,26.4645,-82.1044,1.789,4.81,1111122 
SCCF RECON,ioos:station:SCCF:56:1,2017-07-01T15:00:00Z,26.4645,-82.1044,1.71,5.29,1111122 
SCCF RECON,ioos:station:SCCF:56:1,2017-07-01T16:00:00Z,26.4645,-82.1044,1.65,4.86,1111122 
SCCF RECON,ioos:station:SCCF:56:1,2017-07-01T17:00:00Z,26.4645,-82.1044,1.563,5.04,1111122 
SCCF RECON,ioos:station:SCCF:56:1,2017-07-01T18:00:00Z,26.4645,-82.1044,1.471,5.14,1111122 
SCCF RECON,ioos:station:SCCF:56:1,2017-07-01T19:00:00Z,26.4645,-82.1044,1.42,5.67,1111122 
SCCF RECON,ioos:station:SCCF:56:1,2017-07-01T20:00:00Z,26.4645,-82.1044,1.421,6.59,1111122 
SCCF RECON,ioos:station:SCCF:56:1,2017-07-01T21:00:00Z,26.4645,-82.1044,1.515,8.57,1111122 
SCCF RECON,ioos:station:SCCF:56:1,2017-07-01T22:00:00Z,26.4645,-82.1044,1.61,9.2,1111122 
SCCF RECON,ioos:station:SCCF:56:1,2017-07-01T23:00:00Z,26.4645,-82.1044,1.66,9.26,1111122 
SCCF RECON,ioos:station:SCCF:56:1,2017-07-02T00:00:00Z,26.4645,-82.1044,1.714,9.06,1111122 
SCCF RECON,ioos:station:SCCF:56:1,2017-07-02T01:00:00Z,26.4645,-82.1044,1.68,8.95,1111122 
SCCF RECON,ioos:station:SCCF:56:1,2017-07-02T02:00:00Z,26.4645,-82.1044,1.63,8.56,1111122 
SCCF RECON,ioos:station:SCCF:56:1,2017-07-02T03:00:00Z,26.4645,-82.1044,1.59,8.18,1111122 
SCCF RECON,ioos:station:SCCF:56:1,2017-07-02T04:00:00Z,26.4645,-82.1044,1.573,7.13,1111122 
SCCF RECON,ioos:station:SCCF:56:1,2017-07-02T05:00:00Z,26.4645,-82.1044,1.521,6.64,1111122 
SCCF RECON,ioos:station:SCCF:56:1,2017-07-02T06:00:00Z,26.4645,-82.1044,1.46,5.47,1111122 
SCCF RECON,ioos:station:SCCF:56:1,2017-07-02T07:00:00Z,26.4645,-82.1044,1.44,4.85,1111122 
SCCF RECON,ioos:station:SCCF:56:1,2017-07-02T08:00:00Z,26.4645,-82.1044,1.5,4.76,1111122 
SCCF RECON,ioos:station:SCCF:56:1,2017-07-02T09:00:00Z,26.4645,-82.1044,1.59,4.56,1111122 
SCCF RECON,ioos:station:SCCF:56:1,2017-07-02T10:00:00Z,26.4645,-82.1044,1.71,3.99,1111122 
SCCF RECON,ioos:station:SCCF:56:1,2017-07-02T11:00:00Z,26.4645,-82.1044,1.795,4.16,1111122 
SCCF RECON,ioos:station:SCCF:56:1,2017-07-02T12:00:00Z,26.4645,-82.1044,1.84,4.58,1111122 
SCCF RECON,ioos:station:SCCF:56:1,2017-07-02T13:00:00Z,26.4645,-82.1044,1.86,5.24,1111122 
SCCF RECON,ioos:station:SCCF:56:1,2017-07-02T14:00:00Z,26.4645,-82.1044,1.84,4.35,1111122 
SCCF RECON,ioos:station:SCCF:56:1,2017-07-02T15:00:00Z,26.4645,-82.1044,1.76,5.26,1111122 
SCCF RECON,ioos:station:SCCF:56:1,2017-07-02T16:00:00Z,26.4645,-82.1044,1.689,5.65,1111122 
SCCF RECON,ioos:station:SCCF:56:1,2017-07-02T17:00:00Z,26.4645,-82.1044,1.585,5.63,1111122 
SCCF RECON,ioos:station:SCCF:56:1,2017-07-02T18:00:00Z,26.4645,-82.1044,1.49,5.37,1111122 
SCCF RECON,ioos:station:SCCF:56:1,2017-07-02T19:00:00Z,26.4645,-82.1044,1.4,6.12,1111122 
SCCF RECON,ioos:station:SCCF:56:1,2017-07-02T20:00:00Z,26.4645,-82.1044,1.32,6.44,1111122 
SCCF RECON,ioos:station:SCCF:56:1,2017-07-02T21:00:00Z,26.4645,-82.1044,1.33,7.39,1111122 
SCCF RECON,ioos:station:SCCF:56:1,2017-07-02T22:00:00Z,26.4645,-82.1044,1.43,9.24,1111122 
SCCF RECON,ioos:station:SCCF:56:1,2017-07-02T23:00:00Z,26.4645,-82.1044,1.535,9.11,1111122 
SCCF RECON,ioos:station:SCCF:56:1,2017-07-03T00:00:00Z,26.4645,-82.1044,1.606,9.16,1111122 
SCCF RECON,ioos:station:SCCF:56:1,2017-07-03T01:00:00Z,26.4645,-82.1044,1.67,8.04,1111122 
SCCF RECON,ioos:station:SCCF:56:1,2017-07-03T02:00:00Z,26.4645,-82.1044,1.68,7.59,1111122 
SCCF RECON,ioos:station:SCCF:56:1,2017-07-03T03:00:00Z,26.4645,-82.1044,1.67,7.02,1111122 
SCCF RECON,ioos:station:SCCF:56:1,2017-07-03T04:00:00Z,26.4645,-82.1044,1.641,7.02,1111122 
SCCF RECON,ioos:station:SCCF:56:1,2017-07-03T05:00:00Z,26.4645,-82.1044,1.6,7.05,1111122 
SCCF RECON,ioos:station:SCCF:56:1,2017-07-03T06:00:00Z,26.4645,-82.1044,1.535,7.28,1111122 
SCCF RECON,ioos:station:SCCF:56:1,2017-07-03T07:00:00Z,26.4645,-82.1044,1.478,6.31,1111122 
SCCF RECON,ioos:station:SCCF:56:1,2017-07-03T08:00:00Z,26.4645,-82.1044,1.46,5.8,1111122 
SCCF RECON,ioos:station:SCCF:56:1,2017-07-03T09:00:00Z,26.4645,-82.1044,1.513,5.59,1111122 
SCCF RECON,ioos:station:SCCF:56:1,2017-07-03T10:00:00Z,26.4645,-82.1044,1.619,4.91,1111122 
SCCF RECON,ioos:station:SCCF:56:1,2017-07-03T11:00:00Z,26.4645,-82.1044,1.72,4.41,1111122 
SCCF RECON,ioos:station:SCCF:56:1,2017-07-03T12:00:00Z,26.4645,-82.1044,1.81,4.04,1111122 
SCCF RECON,ioos:station:SCCF:56:1,2017-07-03T13:00:00Z,26.4645,-82.1044,1.86,5.01,1111122 
SCCF RECON,ioos:station:SCCF:56:1,2017-07-03T14:00:00Z,26.4645,-82.1044,1.9,5.43,1111122 
SCCF RECON,ioos:station:SCCF:56:1,2017-07-03T15:00:00Z,26.4645,-82.1044,1.87,5.24,1111122 
SCCF RECON,ioos:station:SCCF:56:1,2017-07-03T16:00:00Z,26.4645,-82.1044,1.79,5.7,1111122 
SCCF RECON,ioos:station:SCCF:56:1,2017-07-03T17:00:00Z,26.4645,-82.1044,1.66,5.64,1111122 
SCCF RECON,ioos:station:SCCF:56:1,2017-07-03T18:00:00Z,26.4645,-82.1044,1.53,5.51,1111122 
SCCF RECON,ioos:station:SCCF:56:1,2017-07-03T19:00:00Z,26.4645,-82.1044,1.42,5.61,1111122 
SCCF RECON,ioos:station:SCCF:56:1,2017-07-03T20:00:00Z,26.4645,-82.1044,1.34,6.88,1111122 
SCCF RECON,ioos:station:SCCF:56:1,2017-07-03T21:00:00Z,26.4645,-82.1044,1.28,7.58,1111122 
SCCF RECON,ioos:station:SCCF:56:1,2017-07-03T22:00:00Z,26.4645,-82.1044,1.28,7.77,1111122 
SCCF RECON,ioos:station:SCCF:56:1,2017-07-03T23:00:00Z,26.4645,-82.1044,1.37,9.14,1111122 
SCCF RECON,ioos:station:SCCF:56:1,2017-07-04T00:00:00Z,26.4645,-82.1044,1.49,9.28,1111122 
SCCF RECON,ioos:station:SCCF:56:1,2017-07-04T01:00:00Z,26.4645,-82.1044,1.6,7.92,1111122 
SCCF RECON,ioos:station:SCCF:56:1,2017-07-04T02:00:00Z,26.4645,-82.1044,1.65,6.93,1111122 
SCCF RECON,ioos:station:SCCF:56:1,2017-07-04T03:00:00Z,26.4645,-82.1044,1.68,6.78,1111122 
SCCF RECON,ioos:station:SCCF:56:1,2017-07-04T04:00:00Z,26.4645,-82.1044,1.67,5.96,1111122 
SCCF RECON,ioos:station:SCCF:56:1,2017-07-04T05:00:00Z,26.4645,-82.1044,1.65,5.87,1111122 
SCCF RECON,ioos:station:SCCF:56:1,2017-07-04T06:00:00Z,26.4645,-82.1044,1.65,5.58,1111122 
SCCF RECON,ioos:station:SCCF:56:1,2017-07-04T07:00:00Z,26.4645,-82.1044,1.58,5.85,1111122 
SCCF RECON,ioos:station:SCCF:56:1,2017-07-04T08:00:00Z,26.4645,-82.1044,1.51,5.29,1111122 
SCCF RECON,ioos:station:SCCF:56:1,2017-07-04T09:00:00Z,26.4645,-82.1044,1.52,5.4,1111122 
SCCF RECON,ioos:station:SCCF:56:1,2017-07-04T10:00:00Z,26.4645,-82.1044,1.599,4.4,1111122 
SCCF RECON,ioos:station:SCCF:56:1,2017-07-04T11:00:00Z,26.4645,-82.1044,1.728,4.21,1111122 
SCCF RECON,ioos:station:SCCF:56:1,2017-07-04T12:00:00Z,26.4645,-82.1044,1.8,4.82,1111122 
SCCF RECON,ioos:station:SCCF:56:1,2017-07-04T13:00:00Z,26.4645,-82.1044,1.863,5.36,1111122 
SCCF RECON,ioos:station:SCCF:56:1,2017-07-04T14:00:00Z,26.4645,-82.1044,1.9,5.53,1111122 
SCCF RECON,ioos:station:SCCF:56:1,2017-07-04T15:00:00Z,26.4645,-82.1044,1.912,6.6,1111122 
SCCF RECON,ioos:station:SCCF:56:1,2017-07-04T16:00:00Z,26.4645,-82.1044,1.889,6.48,1111122 
SCCF RECON,ioos:station:SCCF:56:1,2017-07-04T17:00:00Z,26.4645,-82.1044,1.77,5.8,1111122 
SCCF RECON,ioos:station:SCCF:56:1,2017-07-04T18:00:00Z,26.4645,-82.1044,1.612,5.69,1111122 
SCCF RECON,ioos:station:SCCF:56:1,2017-07-04T19:00:00Z,26.4645,-82.1044,1.5,4.9,1111122 
SCCF RECON,ioos:station:SCCF:56:1,2017-07-04T20:00:00Z,26.4645,-82.1044,1.4,5.1,1111122 
SCCF RECON,ioos:station:SCCF:56:1,2017-07-04T21:00:00Z,26.4645,-82.1044,1.314,5.51,1111122 
SCCF RECON,ioos:station:SCCF:56:1,2017-07-04T22:00:00Z,26.4645,-82.1044,1.22,6.37,1111122 
SCCF RECON,ioos:station:SCCF:56:1,2017-07-04T23:00:00Z,26.4645,-82.1044,1.223,5.99,1111122 
SCCF RECON,ioos:station:SCCF:56:1,2017-07-05T00:00:00Z,26.4645,-82.1044,1.35,7.72,1111122 
SCCF RECON,ioos:station:SCCF:56:1,2017-07-05T01:00:00Z,26.4645,-82.1044,1.473,6.53,1111122 
SCCF RECON,ioos:station:SCCF:56:1,2017-07-05T02:00:00Z,26.4645,-82.1044,1.59,5.75,1111122 
SCCF RECON,ioos:station:SCCF:56:1,2017-07-05T03:00:00Z,26.4645,-82.1044,1.66,5.19,1111122 
SCCF RECON,ioos:station:SCCF:56:1,2017-07-05T04:00:00Z,26.4645,-82.1044,1.728,4.8,1111122 
SCCF RECON,ioos:station:SCCF:56:1,2017-07-05T05:00:00Z,26.4645,-82.1044,1.72,5.15,1111122 
SCCF RECON,ioos:station:SCCF:56:1,2017-07-05T06:00:00Z,26.4645,-82.1044,1.66,4.81,1111122 
SCCF RECON,ioos:station:SCCF:56:1,2017-07-05T07:00:00Z,26.4645,-82.1044,1.62,4.73,1111122 
SCCF RECON,ioos:station:SCCF:56:1,2017-07-05T08:00:00Z,26.4645,-82.1044,1.56,4.75,1111122 
SCCF RECON,ioos:station:SCCF:56:1,2017-07-05T09:00:00Z,26.4645,-82.1044,1.56,4.31,1111122 
SCCF RECON,ioos:station:SCCF:56:1,2017-07-05T10:00:00Z,26.4645,-82.1044,1.59,3.88,1111122 
SCCF RECON,ioos:station:SCCF:56:1,2017-07-05T11:00:00Z,26.4645,-82.1044,1.676,3.25,1111122 
SCCF RECON,ioos:station:SCCF:56:1,2017-07-05T12:00:00Z,26.4645,-82.1044,1.76,4.01,1111122 
SCCF RECON,ioos:station:SCCF:56:1,2017-07-05T13:00:00Z,26.4645,-82.1044,1.839,4.65,1111122 
SCCF RECON,ioos:station:SCCF:56:1,2017-07-05T14:00:00Z,26.4645,-82.1044,1.89,5.07,1111122 
SCCF RECON,ioos:station:SCCF:56:1,2017-07-05T15:00:00Z,26.4645,-82.1044,1.941,5.83,1111122 
SCCF RECON,ioos:station:SCCF:56:1,2017-07-05T16:00:00Z,26.4645,-82.1044,1.94,6.38,1111122 
SCCF RECON,ioos:station:SCCF:56:1,2017-07-05T17:00:00Z,26.4645,-82.1044,1.83,5.6,1111122 
SCCF RECON,ioos:station:SCCF:56:1,2017-07-05T18:00:00Z,26.4645,-82.1044,1.691,5.65,1111122 
SCCF RECON,ioos:station:SCCF:56:1,2017-07-05T19:00:00Z,26.4645,-82.1044,1.58,5.45,1111122 
SCCF RECON,ioos:station:SCCF:56:1,2017-07-05T20:00:00Z,26.4645,-82.1044,1.48,5.75,1111122 
SCCF RECON,ioos:station:SCCF:56:1,2017-07-05T21:00:00Z,26.4645,-82.1044,1.344,5.83,1111122 
SCCF RECON,ioos:station:SCCF:56:1,2017-07-05T22:00:00Z,26.4645,-82.1044,1.277,6.36,1111122 
SCCF RECON,ioos:station:SCCF:56:1,2017-07-05T23:00:00Z,26.4645,-82.1044,1.19,6.29,1111122 
SCCF RECON,ioos:station:SCCF:56:1,2017-07-06T00:00:00Z,26.4645,-82.1044,1.242,5.99,1111122 
SCCF RECON,ioos:station:SCCF:56:1,2017-07-06T01:00:00Z,26.4645,-82.1044,1.39,6.5,1111122 
SCCF RECON,ioos:station:SCCF:56:1,2017-07-06T02:00:00Z,26.4645,-82.1044,1.52,6.03,1111122 
SCCF RECON,ioos:station:SCCF:56:1,2017-07-06T03:00:00Z,26.4645,-82.1044,1.64,5.01,1111122 
SCCF RECON,ioos:station:SCCF:56:1,2017-07-06T04:00:00Z,26.4645,-82.1044,1.71,5.16,1111122 
SCCF RECON,ioos:station:SCCF:56:1,2017-07-06T05:00:00Z,26.4645,-82.1044,1.76,5.16,1111122 
SCCF RECON,ioos:station:SCCF:56:1,2017-07-06T06:00:00Z,26.4645,-82.1044,1.73,5.01,1111122 
SCCF RECON,ioos:station:SCCF:56:1,2017-07-06T07:00:00Z,26.4645,-82.1044,1.68,4.61,1111122 
SCCF RECON,ioos:station:SCCF:56:1,2017-07-06T08:00:00Z,26.4645,-82.1044,1.61,4.83,1111122 
SCCF RECON,ioos:station:SCCF:56:1,2017-07-06T09:00:00Z,26.4645,-82.1044,1.54,4.64,1111122 
SCCF RECON,ioos:station:SCCF:56:1,2017-07-06T10:00:00Z,26.4645,-82.1044,1.492,4.08,1111122 
SCCF RECON,ioos:station:SCCF:56:1,2017-07-06T11:00:00Z,26.4645,-82.1044,1.51,3.72,1111122 
SCCF RECON,ioos:station:SCCF:56:1,2017-07-06T12:00:00Z,26.4645,-82.1044,1.65,3.3,1111122 
SCCF RECON,ioos:station:SCCF:56:1,2017-07-06T13:00:00Z,26.4645,-82.1044,1.8,4.13,1111122 
SCCF RECON,ioos:station:SCCF:56:1,2017-07-06T14:00:00Z,26.4645,-82.1044,1.904,4.93,1111122 
SCCF RECON,ioos:station:SCCF:56:1,2017-07-06T15:00:00Z,26.4645,-82.1044,1.96,5.56,1111122 
SCCF RECON,ioos:station:SCCF:56:1,2017-07-06T16:00:00Z,26.4645,-82.1044,1.951,6.4,1111122 
SCCF RECON,ioos:station:SCCF:56:1,2017-07-06T17:00:00Z,26.4645,-82.1044,1.89,4.98,1111122 
SCCF RECON,ioos:station:SCCF:56:1,2017-07-06T18:00:00Z,26.4645,-82.1044,1.77,5.99,1111122 
SCCF RECON,ioos:station:SCCF:56:1,2017-07-06T19:00:00Z,26.4645,-82.1044,1.635,5.91,1111122 
SCCF RECON,ioos:station:SCCF:56:1,2017-07-06T20:00:00Z,26.4645,-82.1044,1.553,5.74,1111122 
SCCF RECON,ioos:station:SCCF:56:1,2017-07-06T21:00:00Z,26.4645,-82.1044,1.376,4.74,1111122 
SCCF RECON,ioos:station:SCCF:56:1,2017-07-06T22:00:00Z,26.4645,-82.1044,1.27,4.61,1111122 
SCCF RECON,ioos:station:SCCF:56:1,2017-07-06T23:00:00Z,26.4645,-82.1044,1.166,4.37,1111122 
SCCF RECON,ioos:station:SCCF:56:1,2017-07-07T00:00:00Z,26.4645,-82.1044,1.13,3.78,1111122 
SCCF RECON,ioos:station:SCCF:56:1,2017-07-07T01:00:00Z,26.4645,-82.1044,1.234,3.92,1111122 
SCCF RECON,ioos:station:SCCF:56:1,2017-07-07T02:00:00Z,26.4645,-82.1044,1.379,6.69,1111122 
SCCF RECON,ioos:station:SCCF:56:1,2017-07-07T03:00:00Z,26.4645,-82.1044,1.511,5.67,1111122 
SCCF RECON,ioos:station:SCCF:56:1,2017-07-07T04:00:00Z,26.4645,-82.1044,1.63,5.2,1111122 
SCCF RECON,ioos:station:SCCF:56:1,2017-07-07T05:00:00Z,26.4645,-82.1044,1.7,4.79,1111122 
SCCF RECON,ioos:station:SCCF:56:1,2017-07-07T06:00:00Z,26.4645,-82.1044,1.69,5.17,1111122 
SCCF RECON,ioos:station:SCCF:56:1,2017-07-07T07:00:00Z,26.4645,-82.1044,1.652,4.37,1111122 
SCCF RECON,ioos:station:SCCF:56:1,2017-07-07T08:00:00Z,26.4645,-82.1044,1.63,4.46,1111122 
SCCF RECON,ioos:station:SCCF:56:1,2017-07-07T09:00:00Z,26.4645,-82.1044,1.601,4.31,1111122 
SCCF RECON,ioos:station:SCCF:56:1,2017-07-07T10:00:00Z,26.4645,-82.1044,1.58,4.07,1111122 
SCCF RECON,ioos:station:SCCF:56:1,2017-07-07T11:00:00Z,26.4645,-82.1044,1.59,3.64,1111122 
SCCF RECON,ioos:station:SCCF:56:1,2017-07-07T12:00:00Z,26.4645,-82.1044,1.66,3.56,1111122 
SCCF RECON,ioos:station:SCCF:56:1,2017-07-07T13:00:00Z,26.4645,-82.1044,1.75,4.33,1111122 
SCCF RECON,ioos:station:SCCF:56:1,2017-07-07T14:00:00Z,26.4645,-82.1044,1.853,4.29,1111122 
SCCF RECON,ioos:station:SCCF:56:1,2017-07-07T15:00:00Z,26.4645,-82.1044,1.94,5.65,1111122 
SCCF RECON,ioos:station:SCCF:56:1,2017-07-07T16:00:00Z,26.4645,-82.1044,1.99,6.07,1111122 
SCCF RECON,ioos:station:SCCF:56:1,2017-07-07T17:00:00Z,26.4645,-82.1044,1.98,6.67,1111122 
SCCF RECON,ioos:station:SCCF:56:1,2017-07-07T18:00:00Z,26.4645,-82.1044,1.875,6.33,1111122 
SCCF RECON,ioos:station:SCCF:56:1,2017-07-07T19:00:00Z,26.4645,-82.1044,1.75,5.95,1111122 
SCCF RECON,ioos:station:SCCF:56:1,2017-07-07T20:00:00Z,26.4645,-82.1044,1.6,5.61,1111122 
SCCF RECON,ioos:station:SCCF:56:1,2017-07-07T21:00:00Z,26.4645,-82.1044,1.46,5.83,1111122 
SCCF RECON,ioos:station:SCCF:56:1,2017-07-07T22:00:00Z,26.4645,-82.1044,1.33,5.85,1111122 
SCCF RECON,ioos:station:SCCF:56:1,2017-07-07T23:00:00Z,26.4645,-82.1044,1.21,5.97,1111122 
SCCF RECON,ioos:station:SCCF:56:1,2017-07-08T00:00:00Z,26.4645,-82.1044,1.15,7.04,1111122 
SCCF RECON,ioos:station:SCCF:56:1,2017-07-08T01:00:00Z,26.4645,-82.1044,1.18,7.05,1111122 
SCCF RECON,ioos:station:SCCF:56:1,2017-07-08T02:00:00Z,26.4645,-82.1044,1.33,6.35,1111122 
SCCF RECON,ioos:station:SCCF:56:1,2017-07-08T03:00:00Z,26.4645,-82.1044,1.496,6.31,1111122 
SCCF RECON,ioos:station:SCCF:56:1,2017-07-08T04:00:00Z,26.4645,-82.1044,1.62,5.97,1111122 
SCCF RECON,ioos:station:SCCF:56:1,2017-07-08T05:00:00Z,26.4645,-82.1044,1.711,5.75,1111122 
SCCF RECON,ioos:station:SCCF:56:1,2017-07-08T06:00:00Z,26.4645,-82.1044,1.77,5.32,1111122 
SCCF RECON,ioos:station:SCCF:56:1,2017-07-08T07:00:00Z,26.4645,-82.1044,1.76,5.57,1111122 
SCCF RECON,ioos:station:SCCF:56:1,2017-07-08T08:00:00Z,26.4645,-82.1044,1.67,5.35,1111122 
SCCF RECON,ioos:station:SCCF:56:1,2017-07-08T09:00:00Z,26.4645,-82.1044,1.6,5.19,1111122 
SCCF RECON,ioos:station:SCCF:56:1,2017-07-08T10:00:00Z,26.4645,-82.1044,1.56,4.74,1111122 
SCCF RECON,ioos:station:SCCF:56:1,2017-07-08T11:00:00Z,26.4645,-82.1044,1.56,4.19,1111122 
SCCF RECON,ioos:station:SCCF:56:1,2017-07-08T12:00:00Z,26.4645,-82.1044,1.6,4.2,1111122 
SCCF RECON,ioos:station:SCCF:56:1,2017-07-08T13:00:00Z,26.4645,-82.1044,1.7,3.34,1111122 
SCCF RECON,ioos:station:SCCF:56:1,2017-07-08T14:00:00Z,26.4645,-82.1044,1.82,3.31,1111122 
SCCF RECON,ioos:station:SCCF:56:1,2017-07-08T15:00:00Z,26.4645,-82.1044,1.93,4.84,1111122 
SCCF RECON,ioos:station:SCCF:56:1,2017-07-08T16:00:00Z,26.4645,-82.1044,1.98,5.51,1111122 
SCCF RECON,ioos:station:SCCF:56:1,2017-07-08T17:00:00Z,26.4645,-82.1044,1.97,6.21,1111122 
SCCF RECON,ioos:station:SCCF:56:1,2017-07-08T18:00:00Z,26.4645,-82.1044,1.919,5.92,1111122 
SCCF RECON,ioos:station:SCCF:56:1,2017-07-08T19:00:00Z,26.4645,-82.1044,1.81,6.53,1111122 
SCCF RECON,ioos:station:SCCF:56:1,2017-07-08T20:00:00Z,26.4645,-82.1044,1.67,6.6,1111122 
SCCF RECON,ioos:station:SCCF:56:1,2017-07-08T21:00:00Z,26.4645,-82.1044,1.535,5.5,1111122 
SCCF RECON,ioos:station:SCCF:56:1,2017-07-08T22:00:00Z,26.4645,-82.1044,1.4,5.5,1111122 
SCCF RECON,ioos:station:SCCF:56:1,2017-07-08T23:00:00Z,26.4645,-82.1044,1.271,5.75,1111122 
SCCF RECON,ioos:station:SCCF:56:1,2017-07-09T00:00:00Z,26.4645,-82.1044,1.17,5.46,1111122 
SCCF RECON,ioos:station:SCCF:56:1,2017-07-09T01:00:00Z,26.4645,-82.1044,1.11,5.32,1111122 
SCCF RECON,ioos:station:SCCF:56:1,2017-07-09T02:00:00Z,26.4645,-82.1044,1.22,5.07,1111122 
SCCF RECON,ioos:station:SCCF:56:1,2017-07-09T03:00:00Z,26.4645,-82.1044,1.4,4.83,1111122 
SCCF RECON,ioos:station:SCCF:56:1,2017-07-09T04:00:00Z,26.4645,-82.1044,1.52,4.93,1111122 
SCCF RECON,ioos:station:SCCF:56:1,2017-07-09T05:00:00Z,26.4645,-82.1044,1.62,4.36,1111122 
SCCF RECON,ioos:station:SCCF:56:1,2017-07-09T06:00:00Z,26.4645,-82.1044,1.71,4.66,1111122 
SCCF RECON,ioos:station:SCCF:56:1,2017-07-09T07:00:00Z,26.4645,-82.1044,1.72,5.31,1111122 
SCCF RECON,ioos:station:SCCF:56:1,2017-07-09T08:00:00Z,26.4645,-82.1044,1.7,5.17,1111122 
SCCF RECON,ioos:station:SCCF:56:1,2017-07-09T09:00:00Z,26.4645,-82.1044,1.66,4.53,1111122 
SCCF RECON,ioos:station:SCCF:56:1,2017-07-09T10:00:00Z,26.4645,-82.1044,1.6,4.43,1111122 
SCCF RECON,ioos:station:SCCF:56:1,2017-07-09T11:00:00Z,26.4645,-82.1044,1.56,3.93,1111122 
SCCF RECON,ioos:station:SCCF:56:1,2017-07-09T12:00:00Z,26.4645,-82.1044,1.559,3.82,1111122 
SCCF RECON,ioos:station:SCCF:56:1,2017-07-09T13:00:00Z,26.4645,-82.1044,1.6,3.86,1111122 
SCCF RECON,ioos:station:SCCF:56:1,2017-07-09T14:00:00Z,26.4645,-82.1044,1.72,4.86,1111122 
SCCF RECON,ioos:station:SCCF:56:1,2017-07-09T15:00:00Z,26.4645,-82.1044,1.851,4.98,1111122 
SCCF RECON,ioos:station:SCCF:56:1,2017-07-09T16:00:00Z,26.4645,-82.1044,1.95,5.9,1111122 
SCCF RECON,ioos:station:SCCF:56:1,2017-07-09T17:00:00Z,26.4645,-82.1044,1.992,6.54,1111122 
SCCF RECON,ioos:station:SCCF:56:1,2017-07-09T18:00:00Z,26.4645,-82.1044,1.979,6.64,1111122 
SCCF RECON,ioos:station:SCCF:56:1,2017-07-09T19:00:00Z,26.4645,-82.1044,1.877,6.12,1111122 
SCCF RECON,ioos:station:SCCF:56:1,2017-07-09T20:00:00Z,26.4645,-82.1044,1.754,5.8,1111122 
SCCF RECON,ioos:station:SCCF:56:1,2017-07-09T21:00:00Z,26.4645,-82.1044,1.6,5.5,1111122 
SCCF RECON,ioos:station:SCCF:56:1,2017-07-09T22:00:00Z,26.4645,-82.1044,1.45,4.66,1111122 
SCCF RECON,ioos:station:SCCF:56:1,2017-07-09T23:00:00Z,26.4645,-82.1044,1.32,5.36,1111122 
SCCF RECON,ioos:station:SCCF:56:1,2017-07-10T00:00:00Z,26.4645,-82.1044,1.21,5.66,1111122 
SCCF RECON,ioos:station:SCCF:56:1,2017-07-10T01:00:00Z,26.4645,-82.1044,1.13,4.73,1111122 
SCCF RECON,ioos:station:SCCF:56:1,2017-07-10T02:00:00Z,26.4645,-82.1044,1.13,5.01,1111122 
SCCF RECON,ioos:station:SCCF:56:1,2017-07-10T03:00:00Z,26.4645,-82.1044,1.301,4.84,1111122 
SCCF RECON,ioos:station:SCCF:56:1,2017-07-10T04:00:00Z,26.4645,-82.1044,1.46,4.85,1111122 
SCCF RECON,ioos:station:SCCF:56:1,2017-07-10T05:00:00Z,26.4645,-82.1044,1.58,4.04,1111122 
SCCF RECON,ioos:station:SCCF:56:1,2017-07-10T06:00:00Z,26.4645,-82.1044,1.67,4.33,1111122 
SCCF RECON,ioos:station:SCCF:56:1,2017-07-10T07:00:00Z,26.4645,-82.1044,1.74,4.58,1111122 
SCCF RECON,ioos:station:SCCF:56:1,2017-07-10T08:00:00Z,26.4645,-82.1044,1.74,4.84,1111122 
SCCF RECON,ioos:station:SCCF:56:1,2017-07-10T09:00:00Z,26.4645,-82.1044,1.7,4.58,1111122 
SCCF RECON,ioos:station:SCCF:56:1,2017-07-10T10:00:00Z,26.4645,-82.1044,1.63,4.42,1111122 
SCCF RECON,ioos:station:SCCF:56:1,2017-07-10T11:00:00Z,26.4645,-82.1044,1.598,4.1,1111122 
SCCF RECON,ioos:station:SCCF:56:1,2017-07-10T12:00:00Z,26.4645,-82.1044,1.55,3.81,1111122 
SCCF RECON,ioos:station:SCCF:56:1,2017-07-10T13:00:00Z,26.4645,-82.1044,1.521,3.33,1111122 
SCCF RECON,ioos:station:SCCF:56:1,2017-07-10T14:00:00Z,26.4645,-82.1044,1.61,4.25,1111122 
SCCF RECON,ioos:station:SCCF:56:1,2017-07-10T15:00:00Z,26.4645,-82.1044,1.75,5.25,1111122 
SCCF RECON,ioos:station:SCCF:56:1,2017-07-10T16:00:00Z,26.4645,-82.1044,1.878,6.19,1111122 
SCCF RECON,ioos:station:SCCF:56:1,2017-07-10T17:00:00Z,26.4645,-82.1044,1.99,6.65,1111122 
SCCF RECON,ioos:station:SCCF:56:1,2017-07-10T18:00:00Z,26.4645,-82.1044,1.98,6.57,1111122 
SCCF RECON,ioos:station:SCCF:56:1,2017-07-10T19:00:00Z,26.4645,-82.1044,2.01,7.01,1111122 
SCCF RECON,ioos:station:SCCF:56:1,2017-07-10T20:00:00Z,26.4645,-82.1044,1.86,5.81,1111122 
SCCF RECON,ioos:station:SCCF:56:1,2017-07-10T21:00:00Z,26.4645,-82.1044,1.72,5.77,1111122 
SCCF RECON,ioos:station:SCCF:56:1,2017-07-10T22:00:00Z,26.4645,-82.1044,1.6,5.11,1111122 
SCCF RECON,ioos:station:SCCF:56:1,2017-07-10T23:00:00Z,26.4645,-82.1044,1.43,4.36,1111122 
SCCF RECON,ioos:station:SCCF:56:1,2017-07-11T00:00:00Z,26.4645,-82.1044,1.31,4.0,1111122 
SCCF RECON,ioos:station:SCCF:56:1,2017-07-11T01:00:00Z,26.4645,-82.1044,1.21,3.46,1111122 
SCCF RECON,ioos:station:SCCF:56:1,2017-07-11T02:00:00Z,26.4645,-82.1044,1.161,3.0,1111122 
SCCF RECON,ioos:station:SCCF:56:1,2017-07-11T03:00:00Z,26.4645,-82.1044,1.219,2.78,1111122 
SCCF RECON,ioos:station:SCCF:56:1,2017-07-11T04:00:00Z,26.4645,-82.1044,1.36,3.39,1111122 
SCCF RECON,ioos:station:SCCF:56:1,2017-07-11T05:00:00Z,26.4645,-82.1044,1.53,2.33,1111122 
SCCF RECON,ioos:station:SCCF:56:1,2017-07-11T06:00:00Z,26.4645,-82.1044,1.645,2.82,1111122 
SCCF RECON,ioos:station:SCCF:56:1,2017-07-11T07:00:00Z,26.4645,-82.1044,1.71,3.72,1111122 
SCCF RECON,ioos:station:SCCF:56:1,2017-07-11T08:00:00Z,26.4645,-82.1044,1.721,4.5,1111122 
SCCF RECON,ioos:station:SCCF:56:1,2017-07-11T09:00:00Z,26.4645,-82.1044,1.69,4.01,1111122 
SCCF RECON,ioos:station:SCCF:56:1,2017-07-11T10:00:00Z,26.4645,-82.1044,1.662,3.71,1111122 
SCCF RECON,ioos:station:SCCF:56:1,2017-07-11T11:00:00Z,26.4645,-82.1044,1.58,3.3,1111122 
SCCF RECON,ioos:station:SCCF:56:1,2017-07-11T12:00:00Z,26.4645,-82.1044,1.51,2.83,1111122 
SCCF RECON,ioos:station:SCCF:56:1,2017-07-11T13:00:00Z,26.4645,-82.1044,1.45,2.31,1111122 
SCCF RECON,ioos:station:SCCF:56:1,2017-07-11T14:00:00Z,26.4645,-82.1044,1.55,3.0,1111122 
SCCF RECON,ioos:station:SCCF:56:1,2017-07-11T15:00:00Z,26.4645,-82.1044,1.706,5.59,1111122 
SCCF RECON,ioos:station:SCCF:56:1,2017-07-11T16:00:00Z,26.4645,-82.1044,1.84,5.98,1111122 
SCCF RECON,ioos:station:SCCF:56:1,2017-07-11T17:00:00Z,26.4645,-82.1044,1.93,6.51,1111122 
SCCF RECON,ioos:station:SCCF:56:1,2017-07-11T18:00:00Z,26.4645,-82.1044,1.97,6.66,1111122 
SCCF RECON,ioos:station:SCCF:56:1,2017-07-11T19:00:00Z,26.4645,-82.1044,1.97,6.97,1111122 
SCCF RECON,ioos:station:SCCF:56:1,2017-07-11T20:00:00Z,26.4645,-82.1044,1.93,6.44,1111122 
SCCF RECON,ioos:station:SCCF:56:1,2017-07-11T21:00:00Z,26.4645,-82.1044,1.796,5.79,1111122 